Weather History for Wainwright, AK

Change the Weather History Date:

Monday, May 13, 2013

  Actual Average (PABR) Record (PABR)
Temperature  
Mean Temperature 14 °F 20 °F  
Max Temperature 18 °F 24 °F 38 °F (1928)
Min Temperature 10 °F 15 °F -9 °F (2000)
Degree Days  
Heating Degree Days 51 45  
Month to date heating degree days 637  
Since 1 July heating degree days 17784  
Cooling Degree Days 0    
Month to date cooling degree days  
Year to date cooling degree days  
Moisture  
Dew Point 7 °F    
Average Humidity 77    
Maximum Humidity 86    
Minimum Humidity 71    
Precipitation  
Precipitation 0.05 in 0.00 in 0.14 in (1964)
Month to date precipitation 0.06  
Year to date precipitation 0.58  
Snow  
Snow 0.00 in 0.10 in 1.40 in (1964)
Month to date snowfall 1.2  
Since 1 July snowfall 35.5  
Snow Depth -    
Sea Level Pressure  
Sea Level Pressure 29.75 in    
Wind  
Wind Speed 23 mph (NNW)    
Max Wind Speed 30 mph    
Max Gust Speed 37 mph    
Visibility 3 miles    
Events Snow    
T = Trace of Precipitation, MM = Missing Value Source: NWS Daily Summary

Daily Weather History Graph

Daily Weather History Graph

Search for Another Location

Airport:

Trip Planner

Search our weather history database for the weather conditions in past years. The results will help you decide how hot, cold, wet, or windy it might be!

Date:

Astronomy

May. 13, 2013 Rise Set
Actual Time 2:52 AM AKDT 2:03 AM AKDT
Civil Twilight Sun does not rise Sun does not rise
Nautical Twilight Sun does not rise Sun does not rise
Astronomical Twilight Sun does not rise Sun does not rise
Moon No Moon Rise No Moon Set
Length of Visible Light 24h 00m
Length of Day
23h 10m
Waxing Crescent, 13% of the Moon is Illuminated
May 13
Waxing Crescent
May 17
First Quarter
May 24
Full
May 31
Last Quarter
Jun 8
New

Hourly Weather History & Observations

Time (AKDT) Temp. Windchill Dew Point Humidity Pressure Visibility Wind Dir Wind Speed Gust Speed Precip Events Conditions
12:39 AM 17.6 °F 0.5 °F 14.0 °F 86% 29.72 in 1.8 mi NNW 21.9 mph - N/A   Overcast
12:53 AM 18.0 °F 1.3 °F 14.0 °F 84% 29.73 in 1.0 mi NNW 20.7 mph - 0.00 in Snow Light Snow
1:00 AM 17.6 °F -0.3 °F 14.0 °F 86% 29.72 in 1.0 mi North 24.2 mph - 0.00 in Snow Light Snow
1:22 AM 17.6 °F 0.9 °F 12.2 °F 79% 29.72 in 2.5 mi NNW 20.7 mph - 0.00 in   Overcast
1:34 AM 17.6 °F 0.5 °F 12.2 °F 79% 29.72 in 1.2 mi NNW 21.9 mph 29.9 mph 0.00 in Snow Light Snow
1:50 AM 17.6 °F 0.5 °F 12.2 °F 79% 29.72 in 2.5 mi NNW 21.9 mph 29.9 mph 0.00 in Snow Light Snow
1:53 AM 17.1 °F -1.0 °F 12.9 °F 84% 29.73 in 2.5 mi NNW 24.2 mph 29.9 mph 0.00 in Snow Light Snow
2:04 AM 17.6 °F 0.5 °F 12.2 °F 79% 29.72 in 2.0 mi NNW 21.9 mph 32.2 mph 0.00 in Snow Light Snow
2:36 AM 15.8 °F -2.7 °F 10.4 °F 79% 29.72 in 4.0 mi NNW 24.2 mph 31.1 mph 0.00 in   Haze
2:46 AM 15.8 °F -3.1 °F 10.4 °F 79% 29.72 in 4.0 mi NNW 25.3 mph 31.1 mph 0.00 in   Haze
2:53 AM 16.0 °F -3.5 °F 10.9 °F 81% 29.72 in 4.0 mi NNW 27.6 mph 32.2 mph 0.00 in Snow Light Snow
3:53 AM 15.1 °F -4.0 °F 10.0 °F 80% 29.72 in 4.0 mi NNW 25.3 mph 35.7 mph 0.00 in Snow Light Snow
4:53 AM 14.0 °F -5.8 °F 9.0 °F 80% 29.73 in 3.0 mi NNW 26.5 mph 34.5 mph 0.00 in Snow Light Snow
5:53 AM 12.9 °F -5.7 °F 7.0 °F 77% 29.73 in 3.0 mi NNW 21.9 mph 33.4 mph 0.00 in Snow Light Snow
6:11 AM 12.2 °F -8.2 °F 6.8 °F 79% 29.73 in 2.5 mi NNW 26.5 mph 34.5 mph 0.00 in Snow Light Snow
6:20 AM 12.2 °F -6.7 °F 6.8 °F 79% 29.73 in 2.5 mi NNW 21.9 mph 33.4 mph 0.00 in Snow Light Snow
6:40 AM 12.2 °F -7.9 °F 6.8 °F 79% 29.74 in 1.8 mi NNW 25.3 mph 34.5 mph 0.00 in Snow Light Snow
6:53 AM 10.9 °F -11.0 °F 6.1 °F 81% 29.74 in 1.0 mi NNW 29.9 mph 35.7 mph 0.00 in Snow Light Snow
7:18 AM 10.4 °F -10.3 °F 6.8 °F 85% 29.74 in 0.8 mi NNW 25.3 mph 35.7 mph 0.00 in Snow Light Snow
7:33 AM 10.4 °F -9.5 °F 6.8 °F 85% 29.74 in 0.8 mi NNW 23.0 mph 33.4 mph 0.00 in Snow Light Snow
7:53 AM 10.9 °F -9.9 °F 6.1 °F 81% 29.74 in 0.8 mi NNW 26.5 mph 36.8 mph 0.01 in Snow Light Snow
7:59 AM 10.4 °F -11.4 °F 6.8 °F 85% 29.74 in 1.0 mi NNW 28.8 mph 36.8 mph 0.00 in Snow Light Snow
8:03 AM 10.4 °F -11.4 °F 6.8 °F 85% 29.74 in 0.8 mi NNW 28.8 mph 36.8 mph 0.00 in Snow Light Snow
8:53 AM 10.9 °F -10.3 °F 5.0 °F 77% 29.75 in 0.8 mi NNW 27.6 mph 35.7 mph 0.02 in Snow Light Snow
9:24 AM 10.4 °F -11.0 °F 5.0 °F 79% 29.75 in 0.5 mi NNW 27.6 mph 32.2 mph 0.01 in Snow Snow
9:33 AM 10.4 °F -10.7 °F 5.0 °F 79% 29.75 in 0.8 mi NNW 26.5 mph 34.5 mph 0.01 in Snow Light Snow
9:53 AM 10.9 °F -11.0 °F 5.0 °F 77% 29.75 in 1.0 mi NNW 29.9 mph 34.5 mph 0.01 in Snow Light Snow
10:30 AM 10.4 °F -11.4 °F 5.0 °F 79% 29.76 in 0.8 mi NNW 28.8 mph 35.7 mph 0.01 in Snow Light Snow
10:48 AM 10.4 °F -11.4 °F 3.2 °F 73% 29.76 in 1.2 mi NNW 28.8 mph 35.7 mph 0.01 in Snow Light Snow
10:53 AM 10.9 °F -9.9 °F 3.9 °F 73% 29.77 in 1.5 mi NNW 26.5 mph 33.4 mph 0.01 in Snow Light Snow
11:00 AM 10.4 °F -10.3 °F 3.2 °F 73% 29.77 in 2.0 mi NNW 25.3 mph 33.4 mph 0.00 in Snow Light Snow
11:11 AM 10.4 °F -10.7 °F 5.0 °F 79% 29.76 in 2.5 mi NNW 26.5 mph 31.1 mph 0.00 in Snow Light Snow
11:17 AM 10.4 °F -10.3 °F 3.2 °F 73% 29.77 in 0.8 mi NNW 25.3 mph 34.5 mph 0.00 in Snow Light Snow
11:29 AM 12.2 °F -8.6 °F 5.0 °F 73% 29.77 in 1.5 mi NNW 27.6 mph 33.4 mph 0.00 in Snow Light Snow
11:40 AM 12.2 °F -7.5 °F 5.0 °F 73% 29.77 in 3.0 mi NNW 24.2 mph 32.2 mph 0.00 in Snow Light Snow
11:48 AM 12.2 °F -7.9 °F 5.0 °F 73% 29.77 in 3.0 mi NNW 25.3 mph 31.1 mph 0.00 in Snow Light Snow
12:21 PM 12.2 °F -7.1 °F 5.0 °F 73% 29.78 in 3.0 mi NNW 23.0 mph 32.2 mph 0.00 in Snow Light Snow
12:45 PM 12.2 °F -7.9 °F 5.0 °F 73% 29.77 in 3.0 mi NNW 25.3 mph - 0.00 in Snow Light Snow
12:53 PM 12.9 °F -6.1 °F 5.0 °F 71% 29.78 in 6.0 mi NNW 23.0 mph - 0.00 in   Haze
1:42 PM 12.2 °F -6.7 °F 6.8 °F 79% 29.77 in 2.0 mi NNW 21.9 mph 29.9 mph 0.00 in Snow Light Snow
1:50 PM 14.0 °F -3.9 °F 6.8 °F 73% 29.78 in 5.0 mi NNW 20.7 mph - 0.00 in Snow Light Snow
1:53 PM 14.0 °F -3.9 °F 7.0 °F 74% 29.78 in 5.0 mi NNW 20.7 mph - 0.00 in Snow Light Snow
2:17 PM 14.0 °F -5.1 °F 6.8 °F 73% 29.77 in 2.5 mi NW 24.2 mph - 0.00 in Snow Light Snow
2:25 PM 14.0 °F -5.1 °F 6.8 °F 73% 29.77 in 9.0 mi NW 24.2 mph - 0.00 in   Overcast
2:53 PM 14.0 °F -3.0 °F 7.0 °F 74% 29.78 in 8.0 mi NNW 18.4 mph 28.8 mph 0.00 in Snow Light Snow
3:28 PM 14.0 °F -3.9 °F 6.8 °F 73% 29.77 in 4.0 mi NW 20.7 mph - 0.00 in Snow Light Snow
4:25 PM 14.0 °F -3.9 °F 6.8 °F 73% 29.77 in 9.0 mi NW 20.7 mph 25.3 mph 0.00 in Snow Light Snow
4:46 PM 12.2 °F -4.8 °F 6.8 °F 79% 29.77 in 3.0 mi NW 17.3 mph - 0.00 in Snow Light Snow
4:53 PM 12.9 °F -4.9 °F 7.0 °F 77% 29.78 in 1.2 mi NW 19.6 mph - 0.00 in Snow Light Snow
4:59 PM 12.2 °F -5.3 °F 6.8 °F 79% 29.77 in 3.0 mi NW 18.4 mph - 0.00 in Snow Light Snow
6:53 PM 12.9 °F -3.4 °F 6.1 °F 74% 29.77 in 10.0 mi WNW 16.1 mph - N/A   Overcast
7:53 PM 12.9 °F -2.2 °F 6.1 °F 74% 29.77 in 4.0 mi NW 13.8 mph - 0.00 in Snow Light Snow
8:53 PM 12.9 °F -2.8 °F 5.0 °F 71% 29.76 in 10.0 mi NW 15.0 mph - 0.00 in   Overcast
9:12 PM 12.2 °F -2.5 °F 6.8 °F 79% 29.75 in 2.5 mi WNW 12.7 mph - 0.00 in Snow Light Snow
9:27 PM 12.2 °F -3.1 °F 6.8 °F 79% 29.75 in 3.0 mi NW 13.8 mph 23.0 mph 0.00 in Snow Light Snow
9:53 PM 12.9 °F -2.2 °F 6.1 °F 74% 29.75 in 10.0 mi WNW 13.8 mph - 0.00 in   Overcast
10:53 PM 12.9 °F -0.9 °F 6.1 °F 74% 29.75 in 7.0 mi NW 11.5 mph - 0.00 in Snow Light Snow
11:53 PM 12.0 °F -1.3 °F 5.0 °F 73% 29.74 in 10.0 mi WNW 10.4 mph - 0.00 in   Overcast